User: anonymous   Login
Location: Haliburton Scout Reserve
(45.0900°N, 78.3200°W)
Time: 04:38:54
(UTC-05:00)
Language:

IDEFIX/ARIANE 42P - Orbit

View from above orbital plane
View from above orbital plane
View from above satellite
View from above satellite

Ground track
Ground track

The orbit data is extracted from the following two-line orbital elements,

1 27422U 02021B   17344.57660599 -.00000028 +00000-0 +47476-5 0  9992
2 27422 098.2403 335.1885 0013436 075.1241 285.1429 14.29259600813769
Epoch (UTC): 10 December 2017 13:50:18
Eccentricity: 0.0013436
inclination: 98.2403°
perigee height: 784 km
apogee height: 804 km
right ascension of ascending node: 335.1885°
argument of perigee: 75.1241°
revolutions per day: 14.29259600
mean anomaly at epoch: 285.1429°
orbit number at epoch: 81376

The dashed part of the orbit path shows where the satellite is in the earth's shadow,  

DLR